Location: Cantaing
(50.1487°N, 3.1675°E)
Time: 15:09:26
(UTC+00:00)

Cosmos 468 Rocket - Pass Details

Date: 14 January 2026
Orbit: 740 x 774 km, 74.0° (Epoch: 18 February)

Event Time Altitude Azimuth Distance (km) Brightness Sun altitude
Exits shadow 06:31:17 - 338° (NNW) 2,928 6.6 -10.8°
Reaches altitude 10° 06:33:00 10° 341° (NNW) 2,265 6.1 -10.6°
Maximum altitude 06:38:05 64° 63° (ENE) 830 4.4 -9.8°
Drops below altitude 10° 06:43:11 10° 145° (SE) 2,265 7.4 -9.1°
Sets 06:45:34 0° 148° (SSE) 3,190 8.2 -8.7°
